N1IJV-10 Weather Reports


Display with metric or nautical units.
time (UTC)temp
F
wind
direction
speed
MPH
gust
MPH
rain 1hr
in
rain 24hr
in
rain mn
in
humidity
%
barometer
mb
20260504030353 60 124 1.0 2.0 0.00 0.06 0.06 64 1005.7
20260504025849 60 105 1.0 2.0 0.00 0.06 0.06 63 1005.7
20260504025346 60 270 2.0 2.0 0.00 0.06 0.06 63 1005.7
20260504024843 60 257 1.0 2.0 0.00 0.06 0.06 62 1005.8
20260504024339 61 115 0.0 1.0 0.00 0.06 0.06 61 1005.7
20260504023836 61 130 1.0 5.0 0.00 0.06 0.06 60 1005.6
20260504023333 61 242 2.0 3.0 0.00 0.06 0.06 60 1005.6
20260504022828 62 105 1.0 3.0 0.00 0.06 0.06 60 1005.8
20260504022326 61 180 3.0 3.0 0.00 0.06 0.06 60 1005.6
20260504021822 62 208 2.0 3.0 0.00 0.06 0.06 60 1005.5
20260504021320 62 94 1.0 2.0 0.00 0.06 0.06 60 1005.5
20260504020817 62 164 3.0 5.0 0.00 0.06 0.06 59 1005.6
20260504020313 62 234 4.0 5.0 0.00 0.06 0.06 59 1005.4
20260504015809 62 100 1.0 3.0 0.00 0.06 0.06 58 1005.4
20260504015305 62 140 1.0 3.0 0.00 0.06 0.06 58 1005.3
20260504014802 62 199 2.0 3.0 0.00 0.06 0.06 58 1005.3
20260504014258 63 123 1.0 2.0 0.00 0.06 0.06 58 1005.4
20260504013756 63 315 3.0 3.0 0.00 0.06 0.06 57 1005.2
20260504013253 63 285 3.0 6.0 0.00 0.06 0.06 57 1005.5
20260504012749 64 264 2.0 2.0 0.00 0.06 0.06 56 1005.3
20260504012248 64 145 3.0 6.0 0.00 0.06 0.06 56 1005.0
20260504011744 64 276 3.0 7.0 0.00 0.06 0.06 55 1005.2
20260504011241 64 196 2.0 6.0 0.00 0.06 0.06 56 1005.1
20260504010737 64 139 2.0 3.0 0.00 0.06 0.06 55 1005.0
20260504010232 64 196 2.0 3.0 0.00 0.06 0.06 56 1005.1
20260504005730 64 124 3.0 5.0 0.00 0.06 0.06 56 1005.1
20260504005227 64 192 2.0 2.0 0.00 0.06 0.06 55 1005.1
20260504004724 64 190 2.0 3.0 0.00 0.06 0.06 54 1005.0
20260504004221 65 147 2.0 2.0 0.00 0.06 0.06 54 1005.1
20260504003718 66 341 2.0 6.0 0.00 0.06 0.06 52 1005.1
20260504003215 66 287 3.0 6.0 0.00 0.06 0.06 52 1004.8
20260504002712 66 203 4.0 6.0 0.00 0.06 0.06 51 1005.0
20260504002209 66 240 3.0 5.0 0.00 0.06 0.06 51 1005.1
20260504001707 67 1 2.0 7.0 0.00 0.06 0.06 50 1004.9
20260504001203 67 177 4.0 6.0 0.00 0.06 0.06 50 1005.1
20260504000700 67 183 3.0 7.0 0.00 0.06 0.06 49 1005.1
20260504000157 67 260 2.0 8.0 0.00 0.06 0.06 49 1004.9
20260503235655 67 188 2.0 6.0 0.00 0.06 0.06 49 1005.0
20260503235151 68 116 1.0 5.0 0.00 0.06 0.06 49 1004.8
20260503234649 67 223 1.0 6.0 0.00 0.06 0.06 49 1005.1
20260503234148 68 197 3.0 9.0 0.00 0.06 0.06 48 1005.1
20260503233644 68 286 4.0 6.0 0.00 0.06 0.06 48 1005.0
20260503233140 68 316 3.0 5.0 0.00 0.06 0.06 48 1005.3
20260503232637 68 199 1.0 7.0 0.00 0.06 0.06 49 1005.1
20260503232134 68 180 3.0 8.0 0.00 0.06 0.06 48 1005.1
20260503231632 68 241 5.0 9.0 0.00 0.06 0.06 47 1005.0
20260503231128 68 296 5.0 7.0 0.00 0.06 0.06 48 1005.2
20260503230625 68 194 5.0 8.0 0.00 0.06 0.06 47 1005.3
20260503230123 68 261 5.0 7.0 0.00 0.06 0.06 47 1005.2
20260503225620 68 207 2.0 5.0 0.00 0.06 0.06 47 1005.2
20260503225119 68 146 6.0 13.0 0.00 0.06 0.06 47 1005.3
20260503224617 68 338 3.0 13.0 0.00 0.06 0.06 47 1005.4
20260503224115 68 251 3.0 7.0 0.00 0.06 0.06 47 1005.3
20260503223613 68 293 5.0 10.0 0.00 0.06 0.06 46 1005.4
20260503223108 68 168 5.0 10.0 0.00 0.06 0.06 45 1005.4
20260503222606 67 31 4.0 15.0 0.00 0.06 0.06 46 1005.6
20260503222104 68 244 7.0 9.0 0.00 0.06 0.06 45 1005.3
20260503221602 69 196 3.0 9.0 0.00 0.06 0.06 45 1005.6
20260503221059 68 110 3.0 7.0 0.00 0.06 0.06 45 1005.5
20260503220555 68 172 6.0 8.0 0.00 0.06 0.06 45 1005.8
20260503220052 68 148 4.0 5.0 0.00 0.06 0.06 45 1005.7
20260503215549 68 152 6.0 9.0 0.00 0.06 0.06 44 1005.7
20260503215046 69 333 3.0 7.0 0.00 0.06 0.06 45 1005.8
20260503214544 69 270 5.0 6.0 0.00 0.06 0.06 42 1005.7
20260503214041 69 296 6.0 10.0 0.00 0.06 0.06 43 1005.8
20260503213539 69 75 2.0 5.0 0.00 0.06 0.06 45 1006.0
20260503213035 69 186 4.0 8.0 0.00 0.06 0.06 47 1005.9
20260503212533 68 68 3.0 9.0 0.00 0.06 0.06 45 1006.1
20260503212030 66 142 2.0 5.0 0.00 0.06 0.06 48 1006.3
20260503211527 66 80 2.0 8.0 0.00 0.06 0.06 48 1006.4
20260503211023 66 264 3.0 6.0 0.00 0.06 0.06 47 1006.3
20260503210520 68 293 3.0 9.0 0.00 0.06 0.06 46 1006.4
20260503210015 67 258 5.0 9.0 0.00 0.06 0.06 45 1006.8
20260503205512 67 265 4.0 10.0 0.00 0.06 0.06 44 1006.8
20260503205009 67 216 7.0 11.0 0.00 0.06 0.06 44 1006.9
20260503204506 68 298 6.0 10.0 0.00 0.06 0.06 44 1007.1
20260503204002 68 289 4.0 11.0 0.00 0.06 0.06 44 1007.0
20260503203500 65 77 5.0 7.0 0.00 0.06 0.06 46 1007.1
20260503202956 65 197 5.0 9.0 0.00 0.06 0.06 45 1007.4
20260503202455 65 202 4.0 15.0 0.00 0.06 0.06 45 1007.5
20260503201953 66 291 6.0 9.0 0.00 0.06 0.06 44 1007.5
20260503201450 64 200 4.0 8.0 0.00 0.06 0.06 46 1007.6
20260503200947 65 316 6.0 10.0 0.00 0.06 0.06 45 1007.6
20260503200444 66 244 9.0 14.0 0.00 0.06 0.06 44 1007.6
20260503195940 66 270 5.0 17.0 0.00 0.06 0.06 44 1007.8
20260503195438 66 229 5.0 14.0 0.00 0.06 0.06 44 1007.6
20260503194934 68 216 6.0 11.0 0.00 0.06 0.06 45 1007.7
20260503194431 67 244 3.0 9.0 0.00 0.06 0.06 48 1007.7
20260503193926 66 151 4.0 9.0 0.00 0.06 0.06 48 1007.9
20260503193422 66 145 2.0 9.0 0.00 0.06 0.06 51 1007.9
20260503192918 65 195 4.0 9.0 0.00 0.06 0.06 52 1008.1
20260503192415 64 172 3.0 14.0 0.00 0.06 0.06 52 1008.2
20260503191910 64 288 11.0 15.0 0.00 0.06 0.06 52 1008.2
20260503191408 63 183 4.0 9.0 0.00 0.06 0.06 55 1008.1
20260503190904 63 153 3.0 8.0 0.00 0.06 0.06 54 1008.4
20260503190402 62 193 5.0 8.0 0.00 0.06 0.06 59 1008.3
20260503185858 62 342 3.0 6.0 0.00 0.06 0.06 63 1008.4
20260503185355 61 175 5.0 8.0 0.00 0.06 0.06 62 1008.2
20260503184854 61 312 2.0 7.0 0.00 0.06 0.06 61 1008.8
20260503184350 60 172 4.0 10.0 0.00 0.06 0.06 61 1008.7
20260503183847 60 142 5.0 6.0 0.00 0.06 0.06 63 1008.8
20260503183344 59 183 3.0 9.0 0.00 0.06 0.06 65 1008.9
20260503182841 59 265 4.0 7.0 0.00 0.06 0.06 67 1009.1
20260503182340 58 196 2.0 11.0 0.00 0.06 0.06 66 1009.2
20260503181837 58 119 4.0 8.0 0.00 0.06 0.06 66 1009.1
20260503181334 57 280 1.0 7.0 0.00 0.06 0.06 69 1009.2
20260503180830 56 106 1.0 5.0 0.00 0.06 0.06 73 1009.6
20260503180328 55 91 1.0 5.0 0.00 0.06 0.06 76 1009.7
20260503175824 55 62 3.0 6.0 0.00 0.06 0.06 74 1009.8
20260503175323 55 197 3.0 7.0 0.00 0.06 0.06 74 1010.0
20260503174818 54 129 4.0 6.0 0.00 0.06 0.06 75 1010.1
20260503174316 54 122 1.0 6.0 0.00 0.06 0.06 75 1009.9
20260503173811 53 138 1.0 3.0 0.00 0.06 0.06 78 1010.1
20260503173308 52 113 3.0 6.0 0.00 0.06 0.06 79 1010.6
20260503172804 51 66 2.0 7.0 0.00 0.06 0.06 82 1010.7
20260503172305 50 154 3.0 6.0 0.00 0.06 0.06 85 1011.0
20260503171758 50 123 2.0 3.0 0.00 0.06 0.06 86 1010.9
20260503171255 50 111 1.0 3.0 0.00 0.06 0.06 85 1011.2
20260503170752 49 153 5.0 8.0 0.05 0.06 0.06 85 1011.4
20260503170249 49 110 2.0 3.0 0.05 0.06 0.06 88 1011.6
20260503160211 48 176 1.0 2.0 0.00 0.03 0.03 88 1012.8
20260503150641 54 226 7.0 13.0 0.00 0.00 0.00 65 1013.3
20260503150137 55 211 3.0 8.0 0.00 0.00 0.00 61 1013.2
20260503131031 50 165 3.0 5.0 0.00 0.00 0.00 64 1013.5
20260503130528 50 198 5.0 9.0 0.00 0.00 0.00 63 1013.5
20260503110419 46 227 3.0 3.0 0.00 0.00 0.00 67 1013.2
20260503090304 43 123 0.0 1.0 0.00 0.00 0.00 69 1013.8
20260503081231 44 125 0.0 1.0 0.00 0.00 0.00 66 1014.2
20260503080727 44 133 1.0 1.0 0.00 0.00 0.00 65 1014.0
20260503080224 44 228 1.0 2.0 0.00 0.00 0.00 64 1014.2
20260503072701 44 127 1.0 1.0 0.00 0.00 0.00 64 1014.2
20260503072158 44 142 0.0 2.0 0.00 0.00 0.00 64 1014.1
20260503071654 44 173 1.0 1.0 0.00 0.00 0.00 65 1014.1
20260503071151 44 104 1.0 1.0 0.00 0.00 0.00 64 1014.4
20260503070648 44 123 1.0 1.0 0.00 0.00 0.00 63 1014.3
20260503070146 44 164 1.0 1.0 0.00 0.00 0.00 64 1014.2
20260503060110 44 93 1.0 1.0 0.00 0.00 0.00 62 1015.1
20260503055102 45 158 1.0 2.0 0.00 0.00 0.00 61 1014.9
20260503054557 45 168 1.0 1.0 0.00 0.00 0.00 61 1014.9
20260503054055 45 156 0.0 1.0 0.00 0.00 0.00 61 1015.0
20260503053553 45 134 1.0 1.0 0.00 0.00 0.00 61 1015.1
20260503053050 45 110 0.0 2.0 0.00 0.00 0.00 60 1015.1
20260503052547 46 107 0.0 1.0 0.00 0.00 0.00 60 1015.0
20260503052043 46 118 0.0 1.0 0.00 0.00 0.00 60 1015.2
20260503051539 46 198 0.0 1.0 0.00 0.00 0.00 60 1015.2
20260503051037 46 135 0.0 1.0 0.00 0.00 0.00 59 1015.2
20260503050532 46 126 0.0 1.0 0.00 0.00 0.00 59 1015.1
20260503050030 46 120 0.0 1.0 0.00 0.00 0.00 58 1015.3
20260503045527 46 153 1.0 2.0 0.00 0.00 0.00 59 1015.2
20260503045024 46 125 0.0 0.0 0.00 0.00 0.00 59 1015.4
20260503044521 46 145 0.0 1.0 0.00 0.00 0.00 59 1015.4
20260503044019 46 174 1.0 2.0 0.00 0.00 0.00 58 1015.4
20260503043514 46 179 2.0 3.0 0.00 0.00 0.00 58 1015.3
20260503043011 47 160 1.0 1.0 0.00 0.00 0.00 59 1015.3
20260503042508 47 134 1.0 3.0 0.00 0.00 0.00 58 1015.2
20260503042004 47 167 1.0 1.0 0.00 0.00 0.00 57 1015.4
20260503041501 47 149 1.0 1.0 0.00 0.00 0.00 56 1015.0
20260503040959 47 180 1.0 2.0 0.00 0.00 0.00 58 1015.2
20260503040456 47 156 1.0 3.0 0.00 0.00 0.00 59 1015.4
20260503035953 47 141 1.0 1.0 0.00 0.00 0.00 58 1015.5
20260503035450 47 276 1.0 2.0 0.00 0.00 0.00 59 1015.5
20260503034948 47 118 1.0 1.0 0.00 0.00 0.00 61 1015.6
20260503034445 46 155 0.0 1.0 0.00 0.00 0.00 60 1015.6
20260503033942 46 157 1.0 1.0 0.00 0.00 0.00 61 1015.6
20260503033439 46 91 0.0 1.0 0.00 0.00 0.00 62 1015.5
20260503032937 47 1 1.0 1.0 0.00 0.00 0.00 62 1015.3
20260503032435 47 150 1.0 1.0 0.00 0.00 0.00 60 1015.8
20260503031932 47 243 1.0 2.0 0.00 0.00 0.00 60 1015.5
20260503031430 47 115 0.0 0.0 0.00 0.00 0.00 62 1015.7
20260503030927 47 121 0.0 1.0 0.00 0.00 0.00 61 1015.7